Regional Weather Roundup
Issued by NWS

Home | Current Version | Previous Version | Graphics & Text | Print | Product List | Glossary On
Versions: 1 2 3 4 5 6 7 8 9 10 11 12 13 14 15 16 17 18 19 20 21 22 23 24 25 26 27 28 29 30 31 32 33 34 35 36 37 38 39 40 41 42 43 44 45 46 47 48 49 50
000
ASUS43 KBIS 180620
RWRND

NORTH DAKOTA REGIONAL WEATHER ROUNDUP
NATIONAL WEATHER SERVICE BISMARCK ND
100 AM CDT FRI APR 18 2014

NOTE: "FAIR" INDICATES FEW OR NO CLOUDS BELOW 12,000 FEET WITH NO
SIGNIFICANT WEATHER AND/OR OBSTRUCTIONS TO VISIBILITY.


NDZ001>003-009>011-017-180700-
NORTHWEST NORTH DAKOTA

CITY           SKY/WX    TMP DP  RH WIND       PRES   REMARKS
WILLISTON      LGT RAIN  39  27  62 SE8       29.99F
6HR MIN TEMP:  39; 6HR MAX TEMP:  44; 6HR PCP: TRACE;

MINOT          FAIR      33  22  63 E10       30.11F
MINOT AFB      CLOUDY    34  23  63 SE13      30.11S
$$

NDZ018>021-031>035-040>046-180700-
SOUTHWEST NORTH DAKOTA

CITY           SKY/WX    TMP DP  RH WIND       PRES   REMARKS
BISMARCK       PTCLDY    34  24  67 SE14      30.13S
6HR MIN TEMP:  31; 6HR MAX TEMP:  45;

DICKINSON      CLOUDY    35  24  64 SE14      29.98F
GARRISON         N/A     32  24  72 SE9       30.09S
6HR MIN TEMP:  32; 6HR MAX TEMP:  42;

HETTINGER ARPT CLOUDY    35  25  66 SE14      30.00F
$$

NDZ004>008-012>016-024-026-027-054-180700-
NORTHEAST NORTH DAKOTA

CITY           SKY/WX    TMP DP  RH WIND       PRES   REMARKS
GRAND FORKS    CLOUDY    32  21  64 E6        30.30R
GRND FRKS AFB  CLOUDY    32  20  60 E7        30.29S
DEVILS LAKE    CLOUDY    34  16  47 SE16      30.23S
$$

NDZ022-023-025-028>030-036>039-047>053-180700-
SOUTHEAST NORTH DAKOTA

CITY           SKY/WX    TMP DP  RH WIND       PRES   REMARKS
FARGO          MOCLDY    33  21  61 NE7       30.28S
6HR MIN TEMP:  32; 6HR MAX TEMP:  44;

JAMESTOWN      MOCLDY    31  22  69 E9        30.21S
$$




USA.gov is the U.S. government's official web portal to all federal, state and local government web resources and services.